Time,TemperatureF,DewpointF,PressureIn,WindDirection,WindDirectionDegrees,WindSpeedMPH,WindSpeedGustMPH,Humidity,HourlyPrecipIn,Conditions,Clouds,dailyrainin,SoftwareType,DateUTC
2013-08-16 00:01:00,72.3,65.8,-100.00,NNE,23,0.0,2.0,80,0.00,,,0.00,meteohub,2013-08-16 05:01:00,
2013-08-16 00:02:00,72.3,65.8,-100.00,NNE,23,0.0,2.0,80,0.00,,,0.00,meteohub,2013-08-16 05:02:00,
2013-08-16 00:07:00,72.3,65.8,-100.00,NNE,23,0.0,2.0,80,0.00,,,0.00,meteohub,2013-08-16 05:07:00,
2013-08-16 00:09:00,72.5,66.0,-100.00,NNE,23,0.0,2.0,80,0.00,,,0.00,meteohub,2013-08-16 05:09:00,
2013-08-16 00:13:00,72.3,65.8,-100.00,NNE,23,0.0,2.0,80,0.00,,,0.00,meteohub,2013-08-16 05:13:00,
2013-08-16 00:15:00,72.5,66.0,-100.00,NNE,23,0.0,2.0,80,0.00,,,0.00,meteohub,2013-08-16 05:15:00,
2013-08-16 00:20:00,72.5,66.0,-100.00,NNE,23,0.0,2.0,80,0.00,,,0.00,meteohub,2013-08-16 05:20:00,
2013-08-16 00:22:00,72.5,66.0,-100.00,NNE,23,0.0,2.0,80,0.00,,,0.00,meteohub,2013-08-16 05:22:00,
2013-08-16 00:26:00,72.5,66.0,-100.00,ESE,113,0.0,0.0,80,0.00,,,0.00,meteohub,2013-08-16 05:26:00,
2013-08-16 00:28:00,72.5,66.0,-100.00,ESE,113,0.0,0.0,80,0.00,,,0.00,meteohub,2013-08-16 05:28:00,
2013-08-16 00:30:00,72.5,66.0,-100.00,ESE,113,0.0,0.0,80,0.00,,,0.00,meteohub,2013-08-16 05:30:00,
2013-08-16 00:32:00,72.3,65.8,-100.00,ESE,113,0.0,0.0,80,0.00,,,0.00,meteohub,2013-08-16 05:32:00,
2013-08-16 00:34:00,72.5,66.0,-100.00,ESE,113,0.0,0.0,80,0.00,,,0.00,meteohub,2013-08-16 05:34:00,
2013-08-16 00:38:00,72.5,66.0,-100.00,ESE,113,0.0,0.0,80,0.00,,,0.00,meteohub,2013-08-16 05:38:00,
2013-08-16 00:40:00,72.5,66.0,-100.00,East,90,0.0,0.0,80,0.00,,,0.00,meteohub,2013-08-16 05:40:00,
2013-08-16 00:42:00,72.3,65.8,-100.00,ENE,68,0.0,0.0,80,0.00,,,0.00,meteohub,2013-08-16 05:42:00,
2013-08-16 00:44:00,72.3,65.8,-100.00,ENE,68,0.0,0.0,80,0.00,,,0.00,meteohub,2013-08-16 05:44:00,
2013-08-16 00:47:00,72.3,65.8,-100.00,ESE,113,0.0,1.0,80,0.00,,,0.00,meteohub,2013-08-16 05:47:00,
2013-08-16 00:48:00,72.3,65.8,-100.00,ESE,113,0.0,1.0,80,0.00,,,0.00,meteohub,2013-08-16 05:48:00,
2013-08-16 00:50:00,72.3,65.8,-100.00,ESE,113,0.0,1.0,80,0.00,,,0.00,meteohub,2013-08-16 05:50:00,
2013-08-16 00:52:00,72.3,65.8,-100.00,ESE,113,0.0,1.0,80,0.00,,,0.00,meteohub,2013-08-16 05:52:00,
2013-08-16 00:56:00,72.3,65.8,-100.00,SE,135,0.0,1.0,80,0.00,,,0.00,meteohub,2013-08-16 05:56:00,
2013-08-16 00:58:00,72.3,65.8,-100.00,ENE,68,0.0,1.0,80,0.00,,,0.00,meteohub,2013-08-16 05:58:00,
2013-08-16 01:00:00,72.3,65.8,-100.00,ENE,68,0.0,1.0,80,0.00,,,0.00,meteohub,2013-08-16 06:00:00,
2013-08-16 01:02:00,72.3,65.8,-100.00,ENE,68,0.0,1.0,80,0.00,,,0.00,meteohub,2013-08-16 06:02:00,
2013-08-16 01:04:00,72.3,65.8,-100.00,ENE,68,0.0,1.0,80,0.00,,,0.00,meteohub,2013-08-16 06:04:00,
2013-08-16 01:06:00,72.3,65.8,-100.00,ENE,68,0.0,0.0,80,0.00,,,0.00,meteohub,2013-08-16 06:06:00,
2013-08-16 01:10:00,72.3,66.2,-100.00,ENE,68,0.0,0.0,81,0.00,,,0.00,meteohub,2013-08-16 06:10:00,
2013-08-16 01:12:00,72.3,66.2,-100.00,ENE,68,0.0,0.0,81,0.00,,,0.00,meteohub,2013-08-16 06:12:00,
2013-08-16 01:16:00,72.3,66.2,-100.00,ENE,68,0.0,0.0,81,0.00,,,0.00,meteohub,2013-08-16 06:16:00,
2013-08-16 01:17:00,72.3,66.2,-100.00,ENE,68,0.0,0.0,81,0.00,,,0.00,meteohub,2013-08-16 06:17:00,
2013-08-16 01:18:00,72.3,66.2,-100.00,ENE,68,0.0,0.0,81,0.00,,,0.00,meteohub,2013-08-16 06:18:00,
2013-08-16 01:20:00,72.3,66.2,-100.00,ENE,68,0.0,0.0,81,0.00,,,0.00,meteohub,2013-08-16 06:20:00,
2013-08-16 01:22:00,72.3,66.2,-100.00,ENE,68,0.0,0.0,81,0.00,,,0.00,meteohub,2013-08-16 06:22:00,
2013-08-16 01:24:00,72.3,66.2,-100.00,ENE,68,0.0,0.0,81,0.00,,,0.00,meteohub,2013-08-16 06:24:00,
2013-08-16 01:26:00,72.3,66.2,-100.00,ENE,68,0.0,0.0,81,0.00,,,0.00,meteohub,2013-08-16 06:26:00,
2013-08-16 01:30:00,72.3,66.2,-100.00,ENE,68,0.0,0.0,81,0.00,,,0.00,meteohub,2013-08-16 06:30:00,
2013-08-16 01:32:00,72.3,66.2,-100.00,ENE,68,0.0,0.0,81,0.00,,,0.00,meteohub,2013-08-16 06:32:00,
2013-08-16 01:34:00,72.3,66.2,-100.00,ENE,68,0.0,0.0,81,0.00,,,0.00,meteohub,2013-08-16 06:34:00,
2013-08-16 01:36:00,72.1,66.0,-100.00,ENE,68,0.0,0.0,81,0.00,,,0.00,meteohub,2013-08-16 06:36:00,
2013-08-16 01:38:00,72.1,66.0,-100.00,ENE,68,0.0,0.0,81,0.00,,,0.00,meteohub,2013-08-16 06:38:00,
2013-08-16 01:40:00,72.1,66.0,-100.00,ENE,68,0.0,0.0,81,0.00,,,0.00,meteohub,2013-08-16 06:40:00,
2013-08-16 01:42:00,72.1,66.0,-100.00,ENE,68,0.0,0.0,81,0.00,,,0.00,meteohub,2013-08-16 06:42:00,
2013-08-16 01:44:00,72.1,66.0,-100.00,ENE,68,0.0,0.0,81,0.00,,,0.00,meteohub,2013-08-16 06:44:00,
2013-08-16 01:48:00,72.1,66.0,-100.00,ENE,68,0.0,0.0,81,0.00,,,0.00,meteohub,2013-08-16 06:48:00,
2013-08-16 01:50:00,72.1,66.0,-100.00,ENE,68,0.0,0.0,81,0.00,,,0.00,meteohub,2013-08-16 06:50:00,
2013-08-16 01:52:00,72.0,65.8,-100.00,ENE,68,0.0,0.0,81,0.00,,,0.00,meteohub,2013-08-16 06:52:00,
2013-08-16 01:54:00,72.0,65.8,-100.00,ENE,68,0.0,0.0,81,0.00,,,0.00,meteohub,2013-08-16 06:54:00,
2013-08-16 01:58:00,72.0,65.8,-100.00,ENE,68,0.0,0.0,81,0.00,,,0.00,meteohub,2013-08-16 06:58:00,
2013-08-16 02:02:00,72.0,66.2,-100.00,ENE,68,0.0,0.0,82,0.00,,,0.00,meteohub,2013-08-16 07:02:00,
2013-08-16 02:04:00,72.0,66.2,-100.00,ENE,68,0.0,0.0,82,0.00,,,0.00,meteohub,2013-08-16 07:04:00,
2013-08-16 02:08:00,72.0,66.2,-100.00,ENE,68,0.0,0.0,82,0.00,,,0.00,meteohub,2013-08-16 07:08:00,
2013-08-16 02:10:00,71.8,66.0,-100.00,ENE,68,0.0,0.0,82,0.00,,,0.00,meteohub,2013-08-16 07:10:00,
2013-08-16 02:14:00,71.8,66.0,-100.00,ENE,68,0.0,0.0,82,0.00,,,0.00,meteohub,2013-08-16 07:14:00,
2013-08-16 02:16:00,71.8,66.0,-100.00,ENE,68,0.0,0.0,82,0.00,,,0.00,meteohub,2013-08-16 07:16:00,
2013-08-16 02:20:00,71.8,66.0,-100.00,ENE,68,0.0,0.0,82,0.00,,,0.00,meteohub,2013-08-16 07:20:00,
2013-08-16 02:22:00,71.8,66.0,-100.00,ENE,68,0.0,0.0,82,0.00,,,0.00,meteohub,2013-08-16 07:22:00,
2013-08-16 02:26:00,71.6,65.8,-100.00,ENE,68,0.0,0.0,82,0.00,,,0.00,meteohub,2013-08-16 07:26:00,
2013-08-16 02:28:00,71.6,65.8,-100.00,ENE,68,0.0,0.0,82,0.00,,,0.00,meteohub,2013-08-16 07:28:00,
2013-08-16 02:30:00,71.6,65.8,-100.00,ENE,68,0.0,0.0,82,0.00,,,0.00,meteohub,2013-08-16 07:30:00,
2013-08-16 02:32:00,71.8,66.0,-100.00,ENE,68,0.0,0.0,82,0.00,,,0.00,meteohub,2013-08-16 07:32:00,
2013-08-16 02:34:00,71.6,66.2,-100.00,ENE,68,0.0,0.0,83,0.00,,,0.00,meteohub,2013-08-16 07:34:00,
2013-08-16 02:38:00,71.4,66.0,-100.00,ENE,68,0.0,0.0,83,0.00,,,0.00,meteohub,2013-08-16 07:38:00,
2013-08-16 02:40:00,71.4,66.0,-100.00,ENE,68,0.0,0.0,83,0.00,,,0.00,meteohub,2013-08-16 07:40:00,
2013-08-16 02:42:00,71.6,66.2,-100.00,ENE,68,0.0,0.0,83,0.00,,,0.00,meteohub,2013-08-16 07:42:00,
2013-08-16 02:44:00,71.6,66.2,-100.00,ENE,68,0.0,0.0,83,0.00,,,0.00,meteohub,2013-08-16 07:44:00,
2013-08-16 02:46:00,71.4,66.0,-100.00,ENE,68,0.0,0.0,83,0.00,,,0.00,meteohub,2013-08-16 07:46:00,
2013-08-16 02:51:00,71.4,66.0,-100.00,ENE,68,0.0,0.0,83,0.00,,,0.00,meteohub,2013-08-16 07:51:00,
2013-08-16 02:55:00,71.4,66.0,-100.00,ENE,68,0.0,0.0,83,0.00,,,0.00,meteohub,2013-08-16 07:55:00,
2013-08-16 02:59:00,71.4,66.0,-100.00,ENE,68,0.0,0.0,83,0.00,,,0.00,meteohub,2013-08-16 07:59:00,
2013-08-16 03:01:00,71.4,66.0,-100.00,ENE,68,0.0,0.0,83,0.00,,,0.00,meteohub,2013-08-16 08:01:00,
2013-08-16 03:02:00,71.4,66.0,-100.00,ENE,68,0.0,0.0,83,0.00,,,0.00,meteohub,2013-08-16 08:02:00,
2013-08-16 03:03:00,71.4,66.0,-100.00,ENE,68,0.0,0.0,83,0.00,,,0.00,meteohub,2013-08-16 08:03:00,
2013-08-16 03:11:00,71.4,66.0,-100.00,ENE,68,0.0,0.0,83,0.00,,,0.00,meteohub,2013-08-16 08:11:00,
2013-08-16 03:13:00,71.4,66.0,-100.00,ENE,68,0.0,0.0,83,0.00,,,0.00,meteohub,2013-08-16 08:13:00,
2013-08-16 03:17:00,71.4,66.0,-100.00,ENE,68,0.0,0.0,83,0.00,,,0.00,meteohub,2013-08-16 08:17:00,
2013-08-16 03:19:00,71.4,66.0,-100.00,ENE,68,0.0,0.0,83,0.00,,,0.00,meteohub,2013-08-16 08:19:00,
2013-08-16 03:23:00,71.4,66.0,-100.00,ENE,68,0.0,0.0,83,0.00,,,0.00,meteohub,2013-08-16 08:23:00,
2013-08-16 03:27:00,71.2,65.8,-100.00,ENE,68,0.0,0.0,83,0.00,,,0.00,meteohub,2013-08-16 08:27:00,
2013-08-16 03:29:00,71.2,65.8,-100.00,ENE,68,0.0,0.0,83,0.00,,,0.00,meteohub,2013-08-16 08:29:00,
2013-08-16 03:31:00,71.2,65.8,-100.00,ENE,68,0.0,0.0,83,0.00,,,0.00,meteohub,2013-08-16 08:31:00,
2013-08-16 03:35:00,71.2,65.8,-100.00,ENE,68,0.0,0.0,83,0.00,,,0.00,meteohub,2013-08-16 08:35:00,
2013-08-16 03:37:00,71.2,65.8,-100.00,ENE,68,0.0,0.0,83,0.00,,,0.00,meteohub,2013-08-16 08:37:00,
2013-08-16 03:41:00,71.2,65.8,-100.00,ENE,68,0.0,0.0,83,0.00,,,0.00,meteohub,2013-08-16 08:41:00,
2013-08-16 03:45:00,71.2,65.8,-100.00,ENE,68,0.0,0.0,83,0.00,,,0.00,meteohub,2013-08-16 08:45:00,
2013-08-16 03:47:00,71.2,65.8,-100.00,ENE,68,0.0,0.0,83,0.00,,,0.00,meteohub,2013-08-16 08:47:00,
2013-08-16 03:53:00,71.2,65.8,-100.00,ENE,68,0.0,0.0,83,0.00,,,0.00,meteohub,2013-08-16 08:53:00,
2013-08-16 03:59:00,71.1,65.7,-100.00,ENE,68,0.0,0.0,83,0.00,,,0.00,meteohub,2013-08-16 08:59:00,
2013-08-16 04:01:00,71.1,65.7,-100.00,ENE,68,0.0,0.0,83,0.00,,,0.00,meteohub,2013-08-16 09:01:00,
2013-08-16 04:02:00,71.1,65.7,-100.00,ENE,68,0.0,0.0,83,0.00,,,0.00,meteohub,2013-08-16 09:02:00,
2013-08-16 04:05:00,71.1,65.7,-100.00,ENE,68,0.0,0.0,83,0.00,,,0.00,meteohub,2013-08-16 09:05:00,
2013-08-16 04:07:00,71.1,65.7,-100.00,ENE,68,0.0,0.0,83,0.00,,,0.00,meteohub,2013-08-16 09:07:00,
2013-08-16 04:11:00,71.1,65.7,-100.00,ENE,68,0.0,0.0,83,0.00,,,0.00,meteohub,2013-08-16 09:11:00,
2013-08-16 04:13:00,70.9,65.5,-100.00,ENE,68,0.0,0.0,83,0.00,,,0.00,meteohub,2013-08-16 09:13:00,
2013-08-16 04:15:00,70.9,65.5,-100.00,ENE,68,0.0,0.0,83,0.00,,,0.00,meteohub,2013-08-16 09:15:00,
2013-08-16 04:17:00,70.9,65.5,-100.00,ENE,68,0.0,0.0,83,0.00,,,0.00,meteohub,2013-08-16 09:17:00,
2013-08-16 04:21:00,70.9,65.5,-100.00,ENE,68,0.0,0.0,83,0.00,,,0.00,meteohub,2013-08-16 09:21:00,
2013-08-16 04:23:00,70.9,65.5,-100.00,ENE,68,0.0,0.0,83,0.00,,,0.00,meteohub,2013-08-16 09:23:00,
2013-08-16 04:25:00,70.9,65.5,-100.00,ENE,68,0.0,0.0,83,0.00,,,0.00,meteohub,2013-08-16 09:25:00,
2013-08-16 04:27:00,70.9,65.5,-100.00,ENE,68,0.0,0.0,83,0.00,,,0.00,meteohub,2013-08-16 09:27:00,
2013-08-16 04:29:00,70.9,65.5,-100.00,ENE,68,0.0,0.0,83,0.00,,,0.00,meteohub,2013-08-16 09:29:00,
2013-08-16 04:31:00,70.9,65.5,-100.00,ENE,68,0.0,0.0,83,0.00,,,0.00,meteohub,2013-08-16 09:31:00,
2013-08-16 04:33:00,70.9,65.5,-100.00,ENE,68,0.0,0.0,83,0.00,,,0.00,meteohub,2013-08-16 09:33:00,
2013-08-16 04:37:00,70.9,65.5,-100.00,ENE,68,0.0,0.0,83,0.00,,,0.00,meteohub,2013-08-16 09:37:00,
2013-08-16 04:39:00,70.9,65.8,-100.00,ENE,68,0.0,0.0,84,0.00,,,0.00,meteohub,2013-08-16 09:39:00,
2013-08-16 04:43:00,70.9,65.8,-100.00,ENE,68,0.0,0.0,84,0.00,,,0.00,meteohub,2013-08-16 09:43:00,
2013-08-16 04:45:00,70.9,65.8,-100.00,ENE,68,0.0,0.0,84,0.00,,,0.00,meteohub,2013-08-16 09:45:00,
2013-08-16 04:47:00,70.7,65.7,-100.00,ENE,68,0.0,0.0,84,0.00,,,0.00,meteohub,2013-08-16 09:47:00,
2013-08-16 04:49:00,70.7,65.7,-100.00,ENE,68,0.0,0.0,84,0.00,,,0.00,meteohub,2013-08-16 09:49:00,
2013-08-16 04:55:00,70.7,65.7,-100.00,ENE,68,0.0,0.0,84,0.00,,,0.00,meteohub,2013-08-16 09:55:00,
2013-08-16 04:57:00,70.7,65.7,-100.00,ENE,68,0.0,0.0,84,0.00,,,0.00,meteohub,2013-08-16 09:57:00,
2013-08-16 04:59:00,70.5,65.5,-100.00,ENE,68,0.0,0.0,84,0.00,,,0.00,meteohub,2013-08-16 09:59:00,
2013-08-16 05:03:00,70.5,65.5,-100.00,ENE,68,0.0,0.0,84,0.00,,,0.00,meteohub,2013-08-16 10:03:00,
2013-08-16 05:05:00,70.5,65.5,-100.00,ENE,68,0.0,0.0,84,0.00,,,0.00,meteohub,2013-08-16 10:05:00,
2013-08-16 05:07:00,70.5,65.5,-100.00,ENE,68,0.0,0.0,84,0.00,,,0.00,meteohub,2013-08-16 10:07:00,
2013-08-16 05:09:00,70.5,65.5,-100.00,ENE,68,0.0,0.0,84,0.00,,,0.00,meteohub,2013-08-16 10:09:00,
2013-08-16 05:11:00,70.5,65.5,-100.00,ENE,68,0.0,0.0,84,0.00,,,0.00,meteohub,2013-08-16 10:11:00,
2013-08-16 05:13:00,70.5,65.5,-100.00,ENE,68,0.0,0.0,84,0.00,,,0.00,meteohub,2013-08-16 10:13:00,
2013-08-16 05:15:00,70.5,65.5,-100.00,ENE,68,0.0,0.0,84,0.00,,,0.00,meteohub,2013-08-16 10:15:00,
2013-08-16 05:17:00,70.5,65.5,-100.00,ENE,68,0.0,0.0,84,0.00,,,0.00,meteohub,2013-08-16 10:17:00,
2013-08-16 05:21:00,70.5,65.5,-100.00,ENE,68,0.0,0.0,84,0.00,,,0.00,meteohub,2013-08-16 10:21:00,
2013-08-16 05:25:00,70.3,65.3,-100.00,ENE,68,0.0,0.0,84,0.00,,,0.00,meteohub,2013-08-16 10:25:00,
2013-08-16 05:29:00,70.3,65.3,-100.00,ENE,68,0.0,0.0,84,0.00,,,0.00,meteohub,2013-08-16 10:29:00,
2013-08-16 05:31:00,70.3,65.3,-100.00,ENE,68,0.0,0.0,84,0.00,,,0.00,meteohub,2013-08-16 10:31:00,
2013-08-16 05:32:00,70.3,65.3,-100.00,ENE,68,0.0,0.0,84,0.00,,,0.00,meteohub,2013-08-16 10:32:00,
2013-08-16 05:33:00,70.3,65.3,-100.00,ENE,68,0.0,0.0,84,0.00,,,0.00,meteohub,2013-08-16 10:33:00,
2013-08-16 05:37:00,70.3,65.7,-100.00,ENE,68,0.0,0.0,85,0.00,,,0.00,meteohub,2013-08-16 10:37:00,
2013-08-16 05:39:00,70.3,65.7,-100.00,ENE,68,0.0,0.0,85,0.00,,,0.00,meteohub,2013-08-16 10:39:00,
2013-08-16 05:46:00,70.3,65.7,-100.00,ENE,68,0.0,0.0,85,0.00,,,0.00,meteohub,2013-08-16 10:46:00,
2013-08-16 05:47:00,70.2,65.1,-100.00,ENE,68,0.0,0.0,84,0.00,,,0.00,meteohub,2013-08-16 10:47:00,
2013-08-16 05:48:00,70.2,65.1,-100.00,ENE,68,0.0,0.0,84,0.00,,,0.00,meteohub,2013-08-16 10:48:00,
2013-08-16 05:52:00,70.2,65.1,-100.00,ENE,68,0.0,0.0,84,0.00,,,0.00,meteohub,2013-08-16 10:52:00,
2013-08-16 05:54:00,70.2,65.5,-100.00,ENE,68,0.0,0.0,85,0.00,,,0.00,meteohub,2013-08-16 10:54:00,
2013-08-16 05:56:00,70.2,65.5,-100.00,ENE,68,0.0,0.0,85,0.00,,,0.00,meteohub,2013-08-16 10:56:00,
2013-08-16 05:58:00,70.2,65.5,-100.00,ENE,68,0.0,0.0,85,0.00,,,0.00,meteohub,2013-08-16 10:58:00,
2013-08-16 06:00:00,70.2,65.5,-100.00,ENE,68,0.0,0.0,85,0.00,,,0.00,meteohub,2013-08-16 11:00:00,
2013-08-16 06:02:00,70.0,65.3,-100.00,ENE,68,0.0,0.0,85,0.00,,,0.00,meteohub,2013-08-16 11:02:00,
2013-08-16 06:04:00,70.2,65.5,-100.00,ENE,68,0.0,0.0,85,0.00,,,0.00,meteohub,2013-08-16 11:04:00,
2013-08-16 06:06:00,70.0,65.3,-100.00,ENE,68,0.0,0.0,85,0.00,,,0.00,meteohub,2013-08-16 11:06:00,
2013-08-16 06:08:00,70.0,65.3,-100.00,ENE,68,0.0,0.0,85,0.00,,,0.00,meteohub,2013-08-16 11:08:00,
2013-08-16 06:12:00,70.0,65.3,-100.00,ENE,68,0.0,0.0,85,0.00,,,0.00,meteohub,2013-08-16 11:12:00,
2013-08-16 06:14:00,70.0,65.3,-100.00,ENE,68,0.0,0.0,85,0.00,,,0.00,meteohub,2013-08-16 11:14:00,
2013-08-16 06:16:00,70.0,65.3,-100.00,ENE,68,0.0,0.0,85,0.00,,,0.00,meteohub,2013-08-16 11:16:00,
2013-08-16 06:17:00,70.0,65.3,-100.00,ENE,68,0.0,0.0,85,0.00,,,0.00,meteohub,2013-08-16 11:17:00,
2013-08-16 06:20:00,70.0,65.3,-100.00,ENE,68,0.0,0.0,85,0.00,,,0.00,meteohub,2013-08-16 11:20:00,
2013-08-16 06:22:00,69.8,65.1,-100.00,ENE,68,0.0,0.0,85,0.00,,,0.00,meteohub,2013-08-16 11:22:00,
2013-08-16 06:26:00,70.0,65.3,-100.00,ENE,68,0.0,0.0,85,0.00,,,0.00,meteohub,2013-08-16 11:26:00,
2013-08-16 06:28:00,70.0,65.3,-100.00,ENE,68,0.0,0.0,85,0.00,,,0.00,meteohub,2013-08-16 11:28:00,
2013-08-16 06:30:00,69.8,65.1,-100.00,ENE,68,0.0,0.0,85,0.00,,,0.00,meteohub,2013-08-16 11:30:00,
2013-08-16 06:32:00,69.8,65.1,-100.00,ENE,68,0.0,0.0,85,0.00,,,0.00,meteohub,2013-08-16 11:32:00,
2013-08-16 06:34:00,69.8,65.1,-100.00,ENE,68,0.0,0.0,85,0.00,,,0.00,meteohub,2013-08-16 11:34:00,
2013-08-16 06:38:00,69.8,65.1,-100.00,ENE,68,0.0,0.0,85,0.00,,,0.00,meteohub,2013-08-16 11:38:00,
2013-08-16 06:40:00,69.6,64.9,-100.00,ENE,68,0.0,0.0,85,0.00,,,0.00,meteohub,2013-08-16 11:40:00,
2013-08-16 06:44:00,69.6,64.9,-100.00,ENE,68,0.0,0.0,85,0.00,,,0.00,meteohub,2013-08-16 11:44:00,
2013-08-16 06:46:00,69.6,64.9,-100.00,ENE,68,0.0,0.0,85,0.00,,,0.00,meteohub,2013-08-16 11:46:00,
2013-08-16 06:50:00,69.6,64.9,-100.00,ENE,68,0.0,0.0,85,0.00,,,0.00,meteohub,2013-08-16 11:50:00,
2013-08-16 06:52:00,69.6,64.9,-100.00,ENE,68,0.0,0.0,85,0.00,,,0.00,meteohub,2013-08-16 11:52:00,
2013-08-16 06:54:00,69.6,64.9,-100.00,ENE,68,0.0,0.0,85,0.00,,,0.00,meteohub,2013-08-16 11:54:00,
2013-08-16 06:56:00,69.6,64.9,-100.00,ENE,68,0.0,0.0,85,0.00,,,0.00,meteohub,2013-08-16 11:56:00,
2013-08-16 06:58:00,69.6,64.9,-100.00,ENE,68,0.0,0.0,85,0.00,,,0.00,meteohub,2013-08-16 11:58:00,
2013-08-16 07:02:00,69.6,64.9,-100.00,ENE,68,0.0,0.0,85,0.00,,,0.00,meteohub,2013-08-16 12:02:00,
2013-08-16 07:04:00,69.6,64.9,-100.00,ENE,68,0.0,0.0,85,0.00,,,0.00,meteohub,2013-08-16 12:04:00,
2013-08-16 07:06:00,69.6,64.9,-100.00,ENE,68,0.0,0.0,85,0.00,,,0.00,meteohub,2013-08-16 12:06:00,
2013-08-16 07:08:00,69.6,64.9,-100.00,ENE,68,0.0,0.0,85,0.00,,,0.00,meteohub,2013-08-16 12:08:00,
2013-08-16 07:10:00,69.6,64.9,-100.00,ENE,68,0.0,0.0,85,0.00,,,0.00,meteohub,2013-08-16 12:10:00,
2013-08-16 07:12:00,69.4,64.8,-100.00,ENE,68,0.0,0.0,85,0.00,,,0.00,meteohub,2013-08-16 12:12:00,
2013-08-16 07:16:00,69.4,64.8,-100.00,ENE,68,0.0,0.0,85,0.00,,,0.00,meteohub,2013-08-16 12:16:00,
2013-08-16 07:17:00,69.4,64.8,-100.00,ENE,68,0.0,0.0,85,0.00,,,0.00,meteohub,2013-08-16 12:17:00,
2013-08-16 07:20:00,69.4,65.1,-100.00,ENE,68,0.0,0.0,86,0.00,,,0.00,meteohub,2013-08-16 12:20:00,
2013-08-16 07:22:00,69.4,64.8,-100.00,ENE,68,0.0,0.0,85,0.00,,,0.00,meteohub,2013-08-16 12:22:00,
2013-08-16 07:24:00,69.4,64.8,-100.00,ENE,68,0.0,0.0,85,0.00,,,0.00,meteohub,2013-08-16 12:24:00,
2013-08-16 07:28:00,69.4,65.1,-100.00,ENE,68,0.0,0.0,86,0.00,,,0.00,meteohub,2013-08-16 12:28:00,
2013-08-16 07:30:00,69.4,65.1,-100.00,ENE,68,0.0,0.0,86,0.00,,,0.00,meteohub,2013-08-16 12:30:00,
2013-08-16 07:34:00,69.4,65.1,-100.00,ENE,68,0.0,0.0,86,0.00,,,0.00,meteohub,2013-08-16 12:34:00,
2013-08-16 07:36:00,69.4,65.1,-100.00,ENE,68,0.0,0.0,86,0.00,,,0.00,meteohub,2013-08-16 12:36:00,
2013-08-16 07:38:00,69.6,65.3,-100.00,ENE,68,0.0,0.0,86,0.00,,,0.00,meteohub,2013-08-16 12:38:00,
2013-08-16 07:40:00,69.6,65.3,-100.00,ENE,68,0.0,0.0,86,0.00,,,0.00,meteohub,2013-08-16 12:40:00,
2013-08-16 07:46:00,69.6,65.3,-100.00,ENE,68,0.0,0.0,86,0.00,,,0.00,meteohub,2013-08-16 12:46:00,
2013-08-16 07:47:00,69.6,65.3,-100.00,ENE,68,0.0,0.0,86,0.00,,,0.00,meteohub,2013-08-16 12:47:00,
2013-08-16 07:48:00,69.6,65.3,-100.00,ENE,68,0.0,0.0,86,0.00,,,0.00,meteohub,2013-08-16 12:48:00,
2013-08-16 07:50:00,69.6,65.3,-100.00,ENE,68,0.0,0.0,86,0.00,,,0.00,meteohub,2013-08-16 12:50:00,
2013-08-16 07:54:00,69.6,65.3,-100.00,ENE,68,0.0,0.0,86,0.00,,,0.00,meteohub,2013-08-16 12:54:00,
2013-08-16 08:00:00,69.8,65.5,-100.00,NE,45,0.0,0.0,86,0.00,,,0.00,meteohub,2013-08-16 13:00:00,
2013-08-16 08:02:00,70.0,65.7,-100.00,NE,45,0.0,0.0,86,0.00,,,0.00,meteohub,2013-08-16 13:02:00,
2013-08-16 08:04:00,70.0,65.7,-100.00,NNE,23,0.0,0.0,86,0.00,,,0.00,meteohub,2013-08-16 13:04:00,
2013-08-16 08:08:00,70.3,66.0,-100.00,NNE,23,0.0,0.0,86,0.00,,,0.00,meteohub,2013-08-16 13:08:00,
2013-08-16 08:10:00,70.3,66.0,-100.00,NNE,23,0.0,0.0,86,0.00,,,0.00,meteohub,2013-08-16 13:10:00,
2013-08-16 08:14:00,70.5,66.4,-100.00,NNE,23,0.0,0.0,87,0.00,,,0.00,meteohub,2013-08-16 13:14:00,
2013-08-16 08:17:00,70.9,66.7,-100.00,NNE,23,0.0,0.0,87,0.00,,,0.00,meteohub,2013-08-16 13:17:00,
2013-08-16 08:22:00,71.2,67.1,-100.00,NNE,23,0.0,0.0,87,0.00,,,0.00,meteohub,2013-08-16 13:22:00,
2013-08-16 08:24:00,71.4,67.3,-100.00,NNE,23,0.0,0.0,87,0.00,,,0.00,meteohub,2013-08-16 13:24:00,
2013-08-16 08:26:00,71.4,67.3,-100.00,East,90,0.0,0.0,87,0.00,,,0.00,meteohub,2013-08-16 13:26:00,
2013-08-16 08:28:00,71.8,67.6,-100.00,ENE,68,0.0,0.0,87,0.00,,,0.00,meteohub,2013-08-16 13:28:00,
2013-08-16 08:32:00,71.8,67.6,-100.00,NNE,23,0.0,0.0,87,0.00,,,0.00,meteohub,2013-08-16 13:32:00,
2013-08-16 08:35:00,72.0,67.8,-100.00,North,0,0.0,0.0,87,0.00,,,0.00,meteohub,2013-08-16 13:35:00,
2013-08-16 08:37:00,72.1,67.6,-100.00,NNE,23,0.0,0.0,86,0.00,,,0.00,meteohub,2013-08-16 13:37:00,
2013-08-16 08:43:00,72.7,68.2,-100.00,NNE,23,0.0,4.0,86,0.00,,,0.00,meteohub,2013-08-16 13:43:00,
2013-08-16 08:45:00,72.7,68.2,-100.00,NNE,23,2.0,4.0,86,0.00,,,0.00,meteohub,2013-08-16 13:45:00,
2013-08-16 08:51:00,73.2,68.7,-100.00,NNW,338,1.0,4.0,86,0.00,,,0.00,meteohub,2013-08-16 13:51:00,
2013-08-16 08:53:00,73.2,68.7,-100.00,NNE,23,1.0,4.0,86,0.00,,,0.00,meteohub,2013-08-16 13:53:00,
2013-08-16 08:57:00,73.6,68.7,-100.00,NE,45,0.0,2.0,85,0.00,,,0.00,meteohub,2013-08-16 13:57:00,
2013-08-16 08:59:00,73.8,68.9,-100.00,ESE,113,0.0,2.0,85,0.00,,,0.00,meteohub,2013-08-16 13:59:00,
2013-08-16 09:02:00,73.8,68.9,-100.00,NNE,23,1.0,2.0,85,0.00,,,0.00,meteohub,2013-08-16 14:02:00,
2013-08-16 09:03:00,73.9,69.1,-100.00,North,0,0.0,2.0,85,0.00,,,0.00,meteohub,2013-08-16 14:03:00,
2013-08-16 09:05:00,73.9,69.1,-100.00,North,0,0.0,1.0,85,0.00,,,0.00,meteohub,2013-08-16 14:05:00,
2013-08-16 09:09:00,74.3,69.4,-100.00,NNE,23,0.0,1.0,85,0.00,,,0.00,meteohub,2013-08-16 14:09:00,
2013-08-16 09:15:00,74.8,69.6,-100.00,NE,45,1.0,1.0,84,0.00,,,0.00,meteohub,2013-08-16 14:15:00,
2013-08-16 09:17:00,74.8,69.6,-100.00,NE,45,0.0,1.0,84,0.00,,,0.00,meteohub,2013-08-16 14:17:00,
2013-08-16 09:23:00,75.4,69.8,-100.00,ENE,68,0.0,1.0,83,0.00,,,0.00,meteohub,2013-08-16 14:23:00,
2013-08-16 09:25:00,75.6,70.0,-100.00,North,0,0.0,1.0,83,0.00,,,0.00,meteohub,2013-08-16 14:25:00,
2013-08-16 09:27:00,75.7,69.8,-100.00,North,0,0.0,1.0,82,0.00,,,0.00,meteohub,2013-08-16 14:27:00,
2013-08-16 09:31:00,75.9,70.0,-100.00,NNE,23,3.0,3.0,82,0.00,,,0.00,meteohub,2013-08-16 14:31:00,
2013-08-16 09:33:00,76.1,70.2,-100.00,NE,45,1.0,1.0,82,0.00,,,0.00,meteohub,2013-08-16 14:33:00,
2013-08-16 09:37:00,76.5,70.2,-100.00,North,0,0.0,3.0,81,0.00,,,0.00,meteohub,2013-08-16 14:37:00,
2013-08-16 09:41:00,76.6,70.3,-100.00,SSE,158,0.0,5.0,81,0.00,,,0.00,meteohub,2013-08-16 14:41:00,
2013-08-16 09:45:00,77.2,70.9,-100.00,SSE,158,0.0,5.0,81,0.00,,,0.00,meteohub,2013-08-16 14:45:00,
2013-08-16 09:47:00,77.4,70.7,-100.00,SSE,158,2.0,5.0,80,0.00,,,0.00,meteohub,2013-08-16 14:47:00,
2013-08-16 09:53:00,77.9,70.9,-100.00,SW,225,0.0,5.0,79,0.00,,,0.00,meteohub,2013-08-16 14:53:00,
2013-08-16 09:55:00,78.1,71.1,-100.00,WSW,248,0.0,4.0,79,0.00,,,0.00,meteohub,2013-08-16 14:55:00,
2013-08-16 09:57:00,78.1,70.7,-100.00,North,0,0.0,4.0,78,0.00,,,0.00,meteohub,2013-08-16 14:57:00,
2013-08-16 10:01:00,78.6,71.2,-100.00,NNE,23,1.0,4.0,78,0.00,,,0.00,meteohub,2013-08-16 15:01:00,
2013-08-16 10:02:00,78.6,71.2,-100.00,NNE,23,1.0,4.0,78,0.00,,,0.00,meteohub,2013-08-16 15:02:00,
2013-08-16 10:03:00,79.0,71.6,-100.00,North,0,4.0,4.0,78,0.00,,,0.00,meteohub,2013-08-16 15:03:00,
2013-08-16 10:05:00,79.0,71.6,-100.00,NE,45,2.0,4.0,78,0.00,,,0.00,meteohub,2013-08-16 15:05:00,
2013-08-16 10:07:00,79.2,71.8,-100.00,NNE,23,0.0,4.0,78,0.00,,,0.00,meteohub,2013-08-16 15:07:00,
2013-08-16 10:11:00,79.3,71.4,-100.00,NE,45,1.0,4.0,77,0.00,,,0.00,meteohub,2013-08-16 15:11:00,
2013-08-16 10:13:00,79.3,71.4,-100.00,NE,45,1.0,4.0,77,0.00,,,0.00,meteohub,2013-08-16 15:13:00,
2013-08-16 10:15:00,79.3,71.4,-100.00,NE,45,2.0,4.0,77,0.00,,,0.00,meteohub,2013-08-16 15:15:00,
2013-08-16 10:19:00,79.2,70.9,-100.00,NE,45,5.0,5.0,76,0.00,,,0.00,meteohub,2013-08-16 15:19:00,
2013-08-16 10:21:00,79.0,70.3,-100.00,NNE,23,4.0,5.0,75,0.00,,,0.00,meteohub,2013-08-16 15:21:00,
2013-08-16 10:25:00,78.4,69.8,-100.00,NE,45,5.0,5.0,75,0.00,,,0.00,meteohub,2013-08-16 15:25:00,
2013-08-16 10:31:00,77.0,67.6,-100.00,SSW,203,2.0,5.0,73,0.00,,,0.00,meteohub,2013-08-16 15:31:00,
2013-08-16 10:32:00,77.0,67.6,-100.00,SSW,203,2.0,5.0,73,0.00,,,0.00,meteohub,2013-08-16 15:32:00,
2013-08-16 10:33:00,76.6,66.9,-100.00,NE,45,6.0,6.0,72,0.00,,,0.00,meteohub,2013-08-16 15:33:00,
2013-08-16 10:40:00,75.0,65.8,-100.00,NE,45,2.0,5.0,73,0.00,,,0.00,meteohub,2013-08-16 15:40:00,
2013-08-16 10:42:00,74.5,65.7,-100.00,NNE,23,12.0,12.0,74,0.00,,,0.00,meteohub,2013-08-16 15:42:00,
2013-08-16 10:46:00,73.8,65.7,-100.00,NNE,23,3.0,12.0,76,0.00,,,0.00,meteohub,2013-08-16 15:46:00,
2013-08-16 10:48:00,73.8,65.7,-100.00,NNE,23,3.0,12.0,76,0.00,,,0.00,meteohub,2013-08-16 15:48:00,
2013-08-16 10:52:00,73.4,65.7,-100.00,NNE,23,2.0,12.0,77,0.00,,,0.00,meteohub,2013-08-16 15:52:00,
2013-08-16 10:54:00,73.2,65.7,-100.00,NNE,23,2.0,12.0,77,0.00,,,0.00,meteohub,2013-08-16 15:54:00,
2013-08-16 10:56:00,73.2,66.0,-100.00,NNE,23,1.0,12.0,78,0.00,,,0.00,meteohub,2013-08-16 15:56:00,
2013-08-16 11:00:00,72.9,66.0,-100.00,NNE,23,6.0,12.0,79,0.00,,,0.00,meteohub,2013-08-16 16:00:00,
2013-08-16 11:02:00,73.0,66.2,-100.00,NNE,23,2.0,4.0,79,0.00,,,0.00,meteohub,2013-08-16 16:02:00,
2013-08-16 11:06:00,72.9,66.0,-100.00,NNE,23,0.0,7.0,79,0.00,,,0.00,meteohub,2013-08-16 16:06:00,
2013-08-16 11:08:00,73.0,66.2,-100.00,WSW,248,0.0,7.0,79,0.00,,,0.00,meteohub,2013-08-16 16:08:00,
2013-08-16 11:12:00,73.6,66.7,-100.00,WNW,293,0.0,7.0,79,0.00,,,0.00,meteohub,2013-08-16 16:12:00,
2013-08-16 11:17:00,73.9,66.6,-100.00,NNE,23,1.0,7.0,78,0.00,,,0.00,meteohub,2013-08-16 16:17:00,
2013-08-16 11:18:00,73.9,66.6,-100.00,NNE,23,5.0,7.0,78,0.00,,,0.00,meteohub,2013-08-16 16:18:00,
2013-08-16 11:20:00,74.1,66.7,-100.00,ENE,68,0.0,4.0,78,0.00,,,0.00,meteohub,2013-08-16 16:20:00,
2013-08-16 11:22:00,74.3,66.6,-100.00,NNE,23,0.0,4.0,77,0.00,,,0.00,meteohub,2013-08-16 16:22:00,
2013-08-16 11:24:00,74.5,66.7,-100.00,ESE,113,0.0,4.0,77,0.00,,,0.00,meteohub,2013-08-16 16:24:00,
2013-08-16 11:26:00,75.0,67.3,-100.00,NNE,23,5.0,5.0,77,0.00,,,0.00,meteohub,2013-08-16 16:26:00,
2013-08-16 11:28:00,75.0,67.3,-100.00,NNE,23,5.0,5.0,77,0.00,,,0.00,meteohub,2013-08-16 16:28:00,
2013-08-16 11:32:00,75.7,67.3,-100.00,NW,315,0.0,5.0,75,0.00,,,0.00,meteohub,2013-08-16 16:32:00,
2013-08-16 11:34:00,76.1,67.6,-100.00,NNE,23,4.0,5.0,75,0.00,,,0.00,meteohub,2013-08-16 16:34:00,
2013-08-16 11:36:00,76.3,66.9,-100.00,NNE,23,4.0,5.0,73,0.00,,,0.00,meteohub,2013-08-16 16:36:00,
2013-08-16 11:38:00,76.3,66.9,-100.00,NE,45,2.0,5.0,73,0.00,,,0.00,meteohub,2013-08-16 16:38:00,
2013-08-16 11:40:00,76.5,66.7,-100.00,NNE,23,0.0,5.0,72,0.00,,,0.00,meteohub,2013-08-16 16:40:00,
2013-08-16 11:42:00,76.6,66.9,-100.00,NNE,23,3.0,5.0,72,0.00,,,0.00,meteohub,2013-08-16 16:42:00,
2013-08-16 11:44:00,76.8,67.1,-100.00,SW,225,0.0,5.0,72,0.00,,,0.00,meteohub,2013-08-16 16:44:00,
2013-08-16 11:46:00,76.8,66.7,-100.00,WSW,248,1.0,4.0,71,0.00,,,0.00,meteohub,2013-08-16 16:46:00,
2013-08-16 11:50:00,76.6,66.6,-100.00,SW,225,0.0,4.0,71,0.00,,,0.00,meteohub,2013-08-16 16:50:00,
2013-08-16 11:54:00,76.8,66.2,-100.00,NNE,23,0.0,4.0,70,0.00,,,0.00,meteohub,2013-08-16 16:54:00,
2013-08-16 11:56:00,76.8,66.2,-100.00,NE,45,1.0,3.0,70,0.00,,,0.00,meteohub,2013-08-16 16:56:00,
2013-08-16 11:58:00,76.8,66.2,-100.00,NNE,23,2.0,3.0,70,0.00,,,0.00,meteohub,2013-08-16 16:58:00,
2013-08-16 12:02:00,76.8,66.2,-100.00,NNE,23,0.0,2.0,70,0.00,,,0.00,meteohub,2013-08-16 17:02:00,
2013-08-16 12:04:00,76.8,66.2,-100.00,NNW,338,0.0,2.0,70,0.00,,,0.00,meteohub,2013-08-16 17:04:00,
2013-08-16 12:06:00,76.8,66.7,-100.00,West,270,0.0,2.0,71,0.00,,,0.00,meteohub,2013-08-16 17:06:00,
2013-08-16 12:08:00,77.2,66.6,-100.00,North,0,0.0,2.0,70,0.00,,,0.00,meteohub,2013-08-16 17:08:00,
2013-08-16 12:10:00,77.2,66.6,-100.00,NE,45,2.0,2.0,70,0.00,,,0.00,meteohub,2013-08-16 17:10:00,
2013-08-16 12:12:00,77.4,66.4,-100.00,NE,45,0.0,2.0,69,0.00,,,0.00,meteohub,2013-08-16 17:12:00,
2013-08-16 12:16:00,77.5,66.9,-100.00,NNE,23,3.0,3.0,70,0.00,,,0.00,meteohub,2013-08-16 17:16:00,
2013-08-16 12:17:00,77.5,66.9,-100.00,NNE,23,3.0,3.0,70,0.00,,,0.00,meteohub,2013-08-16 17:17:00,
2013-08-16 12:21:00,77.5,66.9,-100.00,NNE,23,0.0,3.0,70,0.00,,,0.00,meteohub,2013-08-16 17:21:00,
2013-08-16 12:25:00,77.9,66.9,-100.00,North,0,0.0,3.0,69,0.00,,,0.00,meteohub,2013-08-16 17:25:00,
2013-08-16 12:27:00,77.9,66.9,-100.00,West,270,1.0,3.0,69,0.00,,,0.00,meteohub,2013-08-16 17:27:00,
2013-08-16 12:29:00,78.1,67.1,-100.00,NE,45,1.0,3.0,69,0.00,,,0.00,meteohub,2013-08-16 17:29:00,
2013-08-16 12:31:00,78.3,66.7,-100.00,NNE,23,0.0,3.0,68,0.00,,,0.00,meteohub,2013-08-16 17:31:00,
2013-08-16 12:32:00,78.3,66.7,-100.00,NNE,23,0.0,3.0,68,0.00,,,0.00,meteohub,2013-08-16 17:32:00,
2013-08-16 12:33:00,78.4,66.9,-100.00,NNE,23,0.0,3.0,68,0.00,,,0.00,meteohub,2013-08-16 17:33:00,
2013-08-16 12:35:00,78.4,66.9,-100.00,NW,315,0.0,3.0,68,0.00,,,0.00,meteohub,2013-08-16 17:35:00,
2013-08-16 12:37:00,78.6,67.1,-100.00,NNW,338,1.0,1.0,68,0.00,,,0.00,meteohub,2013-08-16 17:37:00,
2013-08-16 12:41:00,78.6,66.7,-100.00,NNE,23,0.0,1.0,67,0.00,,,0.00,meteohub,2013-08-16 17:41:00,
2013-08-16 12:43:00,78.6,66.7,-100.00,NE,45,1.0,1.0,67,0.00,,,0.00,meteohub,2013-08-16 17:43:00,
2013-08-16 12:45:00,78.6,66.7,-100.00,NE,45,0.0,1.0,67,0.00,,,0.00,meteohub,2013-08-16 17:45:00,
2013-08-16 12:47:00,78.8,66.9,-100.00,SE,135,0.0,1.0,67,0.00,,,0.00,meteohub,2013-08-16 17:47:00,
2013-08-16 12:51:00,79.2,66.7,-100.00,NE,45,0.0,1.0,66,0.00,,,0.00,meteohub,2013-08-16 17:51:00,
2013-08-16 12:53:00,79.3,66.9,-100.00,NE,45,0.0,1.0,66,0.00,,,0.00,meteohub,2013-08-16 17:53:00,
2013-08-16 12:57:00,79.9,67.5,-100.00,WNW,293,0.0,1.0,66,0.00,,,0.00,meteohub,2013-08-16 17:57:00,
2013-08-16 12:59:00,80.4,68.0,-100.00,North,0,1.0,1.0,66,0.00,,,0.00,meteohub,2013-08-16 17:59:00,
2013-08-16 13:05:00,80.8,67.5,-100.00,SE,135,0.0,2.0,64,0.00,,,0.00,meteohub,2013-08-16 18:05:00,
2013-08-16 13:07:00,81.5,68.2,-100.00,North,0,7.0,7.0,64,0.00,,,0.00,meteohub,2013-08-16 18:07:00,
2013-08-16 13:11:00,82.0,68.2,-100.00,NE,45,0.0,2.0,63,0.00,,,0.00,meteohub,2013-08-16 18:11:00,
2013-08-16 13:17:00,83.3,68.0,-100.00,West,270,1.0,7.0,60,0.00,,,0.00,meteohub,2013-08-16 18:17:00,
2013-08-16 13:19:00,83.5,68.5,-100.00,North,0,0.0,7.0,61,0.00,,,0.00,meteohub,2013-08-16 18:19:00,
2013-08-16 13:21:00,84.0,68.7,-100.00,NE,45,1.0,7.0,60,0.00,,,0.00,meteohub,2013-08-16 18:21:00,
2013-08-16 13:27:00,84.4,68.5,-100.00,ENE,68,0.0,6.0,59,0.00,,,0.00,meteohub,2013-08-16 18:27:00,
2013-08-16 13:29:00,84.4,68.0,-100.00,WNW,293,1.0,6.0,58,0.00,,,0.00,meteohub,2013-08-16 18:29:00,
2013-08-16 13:34:00,84.0,67.6,-100.00,NW,315,0.0,6.0,58,0.00,,,0.00,meteohub,2013-08-16 18:34:00,
2013-08-16 13:38:00,83.7,67.3,-100.00,NW,315,0.0,1.0,58,0.00,,,0.00,meteohub,2013-08-16 18:38:00,
2013-08-16 13:40:00,83.5,67.6,-100.00,WNW,293,0.0,1.0,59,0.00,,,0.00,meteohub,2013-08-16 18:40:00,
2013-08-16 13:42:00,83.5,67.6,-100.00,NE,45,0.0,2.0,59,0.00,,,0.00,meteohub,2013-08-16 18:42:00,
2013-08-16 13:46:00,83.3,67.5,-100.00,South,180,2.0,2.0,59,0.00,,,0.00,meteohub,2013-08-16 18:46:00,
2013-08-16 13:47:00,83.3,67.5,-100.00,South,180,2.0,2.0,59,0.00,,,0.00,meteohub,2013-08-16 18:47:00,
2013-08-16 13:50:00,83.1,66.7,-100.00,East,90,0.0,2.0,58,0.00,,,0.00,meteohub,2013-08-16 18:50:00,
2013-08-16 13:54:00,83.1,66.7,-100.00,East,90,0.0,2.0,58,0.00,,,0.00,meteohub,2013-08-16 18:54:00,
2013-08-16 13:56:00,82.9,66.6,-100.00,West,270,0.0,2.0,58,0.00,,,0.00,meteohub,2013-08-16 18:56:00,
2013-08-16 14:00:00,83.1,66.7,-100.00,WNW,293,1.0,2.0,58,0.00,,,0.00,meteohub,2013-08-16 19:00:00,
2013-08-16 14:02:00,83.5,67.1,-100.00,South,180,4.0,4.0,58,0.00,,,0.00,meteohub,2013-08-16 19:02:00,
2013-08-16 14:04:00,83.5,66.6,-100.00,SE,135,1.0,2.0,57,0.00,,,0.00,meteohub,2013-08-16 19:04:00,
2013-08-16 14:10:00,83.8,66.0,-100.00,ESE,113,1.0,4.0,55,0.00,,,0.00,meteohub,2013-08-16 19:10:00,
2013-08-16 14:16:00,83.8,66.4,-100.00,NW,315,0.0,4.0,56,0.00,,,0.00,meteohub,2013-08-16 19:16:00,
2013-08-16 14:22:00,84.0,66.2,-100.00,SW,225,1.0,4.0,55,0.00,,,0.00,meteohub,2013-08-16 19:22:00,
2013-08-16 14:24:00,84.2,66.2,-100.00,WNW,293,0.0,4.0,55,0.00,,,0.00,meteohub,2013-08-16 19:24:00,
2013-08-16 14:26:00,84.4,66.4,-100.00,NNE,23,2.0,2.0,55,0.00,,,0.00,meteohub,2013-08-16 19:26:00,
2013-08-16 14:28:00,84.4,66.4,-100.00,West,270,1.0,2.0,55,0.00,,,0.00,meteohub,2013-08-16 19:28:00,
2013-08-16 14:30:00,84.6,66.6,-100.00,SSE,158,1.0,2.0,55,0.00,,,0.00,meteohub,2013-08-16 19:30:00,
2013-08-16 14:32:00,84.7,66.2,-100.00,NNW,338,0.0,2.0,54,0.00,,,0.00,meteohub,2013-08-16 19:32:00,
2013-08-16 14:36:00,84.7,65.7,-100.00,SSE,158,2.0,2.0,53,0.00,,,0.00,meteohub,2013-08-16 19:36:00,
2013-08-16 14:40:00,84.7,65.1,-100.00,SSE,158,1.0,2.0,52,0.00,,,0.00,meteohub,2013-08-16 19:40:00,
2013-08-16 14:46:00,84.9,65.3,-100.00,North,0,0.0,2.0,52,0.00,,,0.00,meteohub,2013-08-16 19:46:00,
2013-08-16 14:47:00,84.9,65.3,-100.00,North,0,0.0,2.0,52,0.00,,,0.00,meteohub,2013-08-16 19:47:00,
2013-08-16 14:48:00,84.9,65.3,-100.00,SSE,158,1.0,2.0,52,0.00,,,0.00,meteohub,2013-08-16 19:48:00,
2013-08-16 14:50:00,85.3,65.1,-100.00,SSE,158,2.0,2.0,51,0.00,,,0.00,meteohub,2013-08-16 19:50:00,
2013-08-16 14:54:00,85.6,65.5,-100.00,WNW,293,1.0,2.0,51,0.00,,,0.00,meteohub,2013-08-16 19:54:00,
2013-08-16 14:58:00,87.4,67.1,-100.00,North,0,2.0,3.0,51,0.00,,,0.00,meteohub,2013-08-16 19:58:00,
2013-08-16 15:00:00,87.4,67.1,-100.00,North,0,2.0,3.0,51,0.00,,,0.00,meteohub,2013-08-16 20:00:00,
2013-08-16 15:02:00,87.8,66.2,-100.00,South,180,2.0,3.0,49,0.00,,,0.00,meteohub,2013-08-16 20:02:00,
2013-08-16 15:04:00,88.3,66.2,-100.00,NE,45,0.0,3.0,48,0.00,,,0.00,meteohub,2013-08-16 20:04:00,
2013-08-16 15:08:00,88.9,65.5,-100.00,West,270,1.0,3.0,46,0.00,,,0.00,meteohub,2013-08-16 20:08:00,
2013-08-16 15:10:00,89.2,65.7,-100.00,East,90,0.0,2.0,46,0.00,,,0.00,meteohub,2013-08-16 20:10:00,
2013-08-16 15:12:00,89.2,65.1,-100.00,SSE,158,1.0,2.0,45,0.00,,,0.00,meteohub,2013-08-16 20:12:00,
2013-08-16 15:14:00,89.2,64.4,-100.00,East,90,0.0,2.0,44,0.00,,,0.00,meteohub,2013-08-16 20:14:00,
2013-08-16 15:16:00,89.4,64.6,-100.00,NE,45,0.0,2.0,44,0.00,,,0.00,meteohub,2013-08-16 20:16:00,
2013-08-16 15:17:00,89.4,64.6,-100.00,NE,45,0.0,2.0,44,0.00,,,0.00,meteohub,2013-08-16 20:17:00,
2013-08-16 15:18:00,89.4,64.6,-100.00,NE,45,0.0,2.0,44,0.00,,,0.00,meteohub,2013-08-16 20:18:00,
2013-08-16 15:24:00,89.8,64.2,-100.00,NE,45,2.0,2.0,43,0.00,,,0.00,meteohub,2013-08-16 20:24:00,
2013-08-16 15:26:00,90.1,64.6,-100.00,NE,45,0.0,2.0,43,0.00,,,0.00,meteohub,2013-08-16 20:26:00,
2013-08-16 15:28:00,90.3,64.0,-100.00,SE,135,1.0,2.0,42,0.00,,,0.00,meteohub,2013-08-16 20:28:00,
2013-08-16 15:32:00,90.5,64.2,-100.00,NE,45,1.0,2.0,42,0.00,,,0.00,meteohub,2013-08-16 20:32:00,
2013-08-16 15:38:00,90.5,63.0,-100.00,NE,45,1.0,2.0,40,0.00,,,0.00,meteohub,2013-08-16 20:38:00,
2013-08-16 15:42:00,90.3,63.5,-100.00,NE,45,0.0,2.0,41,0.00,,,0.00,meteohub,2013-08-16 20:42:00,
2013-08-16 15:44:00,90.3,62.8,-100.00,NNE,23,2.0,2.0,40,0.00,,,0.00,meteohub,2013-08-16 20:44:00,
2013-08-16 15:49:00,90.1,62.6,-100.00,NNE,23,2.0,2.0,40,0.00,,,0.00,meteohub,2013-08-16 20:49:00,
2013-08-16 15:51:00,90.1,62.6,-100.00,North,0,0.0,2.0,40,0.00,,,0.00,meteohub,2013-08-16 20:51:00,
2013-08-16 15:53:00,90.0,62.4,-100.00,NE,45,1.0,2.0,40,0.00,,,0.00,meteohub,2013-08-16 20:53:00,
2013-08-16 15:55:00,90.0,63.1,-100.00,NE,45,0.0,2.0,41,0.00,,,0.00,meteohub,2013-08-16 20:55:00,
2013-08-16 15:59:00,90.0,62.4,-100.00,NE,45,1.0,2.0,40,0.00,,,0.00,meteohub,2013-08-16 20:59:00,
2013-08-16 16:01:00,90.0,63.1,-100.00,WSW,248,1.0,2.0,41,0.00,,,0.00,meteohub,2013-08-16 21:01:00,
2013-08-16 16:03:00,90.1,63.3,-100.00,North,0,0.0,2.0,41,0.00,,,0.00,meteohub,2013-08-16 21:03:00,
2013-08-16 16:05:00,90.3,62.8,-100.00,NE,45,4.0,4.0,40,0.00,,,0.00,meteohub,2013-08-16 21:05:00,
2013-08-16 16:07:00,90.7,62.2,-100.00,ENE,68,1.0,1.0,39,0.00,,,0.00,meteohub,2013-08-16 21:07:00,
2013-08-16 16:09:00,90.7,62.2,-100.00,ENE,68,1.0,1.0,39,0.00,,,0.00,meteohub,2013-08-16 21:09:00,
2013-08-16 16:11:00,90.7,62.2,-100.00,NNW,338,0.0,4.0,39,0.00,,,0.00,meteohub,2013-08-16 21:11:00,
2013-08-16 16:17:00,91.2,62.1,-100.00,WSW,248,0.0,6.0,38,0.00,,,0.00,meteohub,2013-08-16 21:17:00,
2013-08-16 16:19:00,91.2,61.3,-100.00,NNE,23,6.0,6.0,37,0.00,,,0.00,meteohub,2013-08-16 21:19:00,
2013-08-16 16:23:00,91.6,62.4,-100.00,WSW,248,0.0,6.0,38,0.00,,,0.00,meteohub,2013-08-16 21:23:00,
2013-08-16 16:27:00,91.9,60.4,-100.00,East,90,0.0,6.0,35,0.00,,,0.00,meteohub,2013-08-16 21:27:00,
2013-08-16 16:31:00,92.1,59.7,-100.00,NNE,23,1.0,6.0,34,0.00,,,0.00,meteohub,2013-08-16 21:31:00,
2013-08-16 16:32:00,92.1,59.7,-100.00,NNE,23,1.0,6.0,34,0.00,,,0.00,meteohub,2013-08-16 21:32:00,
2013-08-16 16:37:00,91.9,57.9,-100.00,North,0,4.0,4.0,32,0.00,,,0.00,meteohub,2013-08-16 21:37:00,
2013-08-16 16:41:00,91.9,58.6,-100.00,NE,45,1.0,6.0,33,0.00,,,0.00,meteohub,2013-08-16 21:41:00,
2013-08-16 16:43:00,91.6,58.5,-100.00,NE,45,1.0,6.0,33,0.00,,,0.00,meteohub,2013-08-16 21:43:00,
2013-08-16 16:47:00,91.4,59.0,-100.00,NE,45,1.0,6.0,34,0.00,,,0.00,meteohub,2013-08-16 21:47:00,
2013-08-16 16:49:00,91.2,59.0,-100.00,NNE,23,2.0,6.0,34,0.00,,,0.00,meteohub,2013-08-16 21:49:00,
2013-08-16 16:53:00,91.2,59.7,-100.00,NE,45,1.0,4.0,35,0.00,,,0.00,meteohub,2013-08-16 21:53:00,
2013-08-16 16:55:00,91.2,59.7,-100.00,NE,45,0.0,4.0,35,0.00,,,0.00,meteohub,2013-08-16 21:55:00,
2013-08-16 17:01:00,90.9,59.4,-100.00,NE,45,2.0,5.0,35,0.00,,,0.00,meteohub,2013-08-16 22:01:00,
2013-08-16 17:02:00,90.9,59.4,-100.00,NE,45,2.0,5.0,35,0.00,,,0.00,meteohub,2013-08-16 22:02:00,
2013-08-16 17:03:00,90.7,60.1,-100.00,NNE,23,1.0,5.0,36,0.00,,,0.00,meteohub,2013-08-16 22:03:00,
2013-08-16 17:05:00,90.5,59.9,-100.00,NE,45,1.0,5.0,36,0.00,,,0.00,meteohub,2013-08-16 22:05:00,
2013-08-16 17:09:00,90.3,60.4,-100.00,North,0,0.0,5.0,37,0.00,,,0.00,meteohub,2013-08-16 22:09:00,
2013-08-16 17:11:00,90.3,60.4,-100.00,North,0,0.0,5.0,37,0.00,,,0.00,meteohub,2013-08-16 22:11:00,
2013-08-16 17:13:00,90.3,60.4,-100.00,NNE,23,4.0,5.0,37,0.00,,,0.00,meteohub,2013-08-16 22:13:00,
2013-08-16 17:17:00,90.3,60.4,-100.00,North,0,5.0,5.0,37,0.00,,,0.00,meteohub,2013-08-16 22:17:00,
2013-08-16 17:21:00,90.3,60.4,-100.00,East,90,1.0,5.0,37,0.00,,,0.00,meteohub,2013-08-16 22:21:00,
2013-08-16 17:23:00,90.3,61.3,-100.00,NNE,23,0.0,5.0,38,0.00,,,0.00,meteohub,2013-08-16 22:23:00,
2013-08-16 17:27:00,90.1,61.9,-100.00,NE,45,0.0,5.0,39,0.00,,,0.00,meteohub,2013-08-16 22:27:00,
2013-08-16 17:29:00,90.1,61.2,-100.00,NNE,23,2.0,5.0,38,0.00,,,0.00,meteohub,2013-08-16 22:29:00,
2013-08-16 17:31:00,90.3,62.1,-100.00,NE,45,0.0,5.0,39,0.00,,,0.00,meteohub,2013-08-16 22:31:00,
2013-08-16 17:33:00,90.3,62.1,-100.00,WNW,293,3.0,5.0,39,0.00,,,0.00,meteohub,2013-08-16 22:33:00,
2013-08-16 17:36:00,90.1,61.9,-100.00,South,180,0.0,3.0,39,0.00,,,0.00,meteohub,2013-08-16 22:36:00,
2013-08-16 17:38:00,90.1,61.9,-100.00,NE,45,2.0,3.0,39,0.00,,,0.00,meteohub,2013-08-16 22:38:00,
2013-08-16 17:40:00,90.1,61.9,-100.00,NE,45,2.0,3.0,39,0.00,,,0.00,meteohub,2013-08-16 22:40:00,
2013-08-16 17:42:00,90.1,62.6,-100.00,SSW,203,2.0,3.0,40,0.00,,,0.00,meteohub,2013-08-16 22:42:00,
2013-08-16 17:46:00,90.0,61.7,-100.00,NNE,23,2.0,3.0,39,0.00,,,0.00,meteohub,2013-08-16 22:46:00,
2013-08-16 17:47:00,90.0,61.7,-100.00,NNE,23,2.0,3.0,39,0.00,,,0.00,meteohub,2013-08-16 22:47:00,
2013-08-16 17:52:00,89.8,62.2,-100.00,NNE,23,2.0,2.0,40,0.00,,,0.00,meteohub,2013-08-16 22:52:00,
2013-08-16 17:54:00,89.8,62.2,-100.00,NNE,23,2.0,2.0,40,0.00,,,0.00,meteohub,2013-08-16 22:54:00,
2013-08-16 17:58:00,89.6,62.1,-100.00,NNE,23,2.0,2.0,40,0.00,,,0.00,meteohub,2013-08-16 22:58:00,
2013-08-16 18:02:00,89.4,61.9,-100.00,North,0,4.0,7.0,40,0.00,,,0.00,meteohub,2013-08-16 23:02:00,
2013-08-16 18:04:00,89.4,61.9,-100.00,NE,45,3.0,7.0,40,0.00,,,0.00,meteohub,2013-08-16 23:04:00,
2013-08-16 18:08:00,89.4,61.9,-100.00,ESE,113,2.0,7.0,40,0.00,,,0.00,meteohub,2013-08-16 23:08:00,
2013-08-16 18:12:00,89.2,61.7,-100.00,North,0,0.0,7.0,40,0.00,,,0.00,meteohub,2013-08-16 23:12:00,
2013-08-16 18:14:00,89.2,61.7,-100.00,NE,45,1.0,7.0,40,0.00,,,0.00,meteohub,2013-08-16 23:14:00,
2013-08-16 18:16:00,89.2,61.7,-100.00,NNE,23,1.0,4.0,40,0.00,,,0.00,meteohub,2013-08-16 23:16:00,
2013-08-16 18:17:00,89.2,61.7,-100.00,NNE,23,1.0,4.0,40,0.00,,,0.00,meteohub,2013-08-16 23:17:00,
2013-08-16 18:22:00,88.9,61.5,-100.00,North,0,0.0,3.0,40,0.00,,,0.00,meteohub,2013-08-16 23:22:00,
2013-08-16 18:24:00,88.9,61.5,-100.00,North,0,2.0,3.0,40,0.00,,,0.00,meteohub,2013-08-16 23:24:00,
2013-08-16 18:26:00,88.7,61.3,-100.00,North,0,5.0,5.0,40,0.00,,,0.00,meteohub,2013-08-16 23:26:00,
2013-08-16 18:28:00,88.7,61.3,-100.00,ENE,68,1.0,3.0,40,0.00,,,0.00,meteohub,2013-08-16 23:28:00,
2013-08-16 18:30:00,88.7,61.3,-100.00,NNE,23,3.0,5.0,40,0.00,,,0.00,meteohub,2013-08-16 23:30:00,
2013-08-16 18:36:00,88.5,61.2,-100.00,NNE,23,4.0,5.0,40,0.00,,,0.00,meteohub,2013-08-16 23:36:00,
2013-08-16 18:38:00,88.5,61.2,-100.00,NNE,23,0.0,5.0,40,0.00,,,0.00,meteohub,2013-08-16 23:38:00,
2013-08-16 18:40:00,88.3,61.0,-100.00,NNE,23,0.0,5.0,40,0.00,,,0.00,meteohub,2013-08-16 23:40:00,
2013-08-16 18:42:00,88.3,61.0,-100.00,NW,315,0.0,5.0,40,0.00,,,0.00,meteohub,2013-08-16 23:42:00,
2013-08-16 18:44:00,88.3,61.0,-100.00,NNE,23,2.0,5.0,40,0.00,,,0.00,meteohub,2013-08-16 23:44:00,
2013-08-16 18:46:00,88.3,61.7,-100.00,ENE,68,0.0,4.0,41,0.00,,,0.00,meteohub,2013-08-16 23:46:00,
2013-08-16 18:47:00,88.3,61.7,-100.00,ENE,68,0.0,4.0,41,0.00,,,0.00,meteohub,2013-08-16 23:47:00,
2013-08-16 18:52:00,88.0,61.3,-100.00,West,270,0.0,4.0,41,0.00,,,0.00,meteohub,2013-08-16 23:52:00,
2013-08-16 18:54:00,88.0,61.3,-100.00,NNE,23,3.0,4.0,41,0.00,,,0.00,meteohub,2013-08-16 23:54:00,
2013-08-16 18:56:00,87.6,61.0,-100.00,NE,45,0.0,2.0,41,0.00,,,0.00,meteohub,2013-08-16 23:56:00,
2013-08-16 18:58:00,87.6,61.7,-100.00,NNE,23,0.0,2.0,42,0.00,,,0.00,meteohub,2013-08-16 23:58:00,
2013-08-16 19:00:00,87.6,61.7,-100.00,NE,45,2.0,3.0,42,0.00,,,0.00,meteohub,2013-08-17 00:00:00,
2013-08-16 19:03:00,87.6,61.7,-100.00,NNE,23,0.0,3.0,42,0.00,,,0.00,meteohub,2013-08-17 00:03:00,
2013-08-16 19:09:00,87.3,62.1,-100.00,NE,45,2.0,3.0,43,0.00,,,0.00,meteohub,2013-08-17 00:09:00,
2013-08-16 19:13:00,87.1,61.9,-100.00,North,0,5.0,5.0,43,0.00,,,0.00,meteohub,2013-08-17 00:13:00,
2013-08-16 19:15:00,87.1,61.9,-100.00,NNE,23,1.0,3.0,43,0.00,,,0.00,meteohub,2013-08-17 00:15:00,
2013-08-16 19:17:00,87.1,61.9,-100.00,NNE,23,3.0,5.0,43,0.00,,,0.00,meteohub,2013-08-17 00:17:00,
2013-08-16 19:19:00,86.9,61.7,-100.00,NNE,23,1.0,5.0,43,0.00,,,0.00,meteohub,2013-08-17 00:19:00,
2013-08-16 19:25:00,86.7,62.2,-100.00,NE,45,1.0,5.0,44,0.00,,,0.00,meteohub,2013-08-17 00:25:00,
2013-08-16 19:29:00,86.5,62.1,-100.00,NE,45,0.0,5.0,44,0.00,,,0.00,meteohub,2013-08-17 00:29:00,
2013-08-16 19:31:00,86.5,62.6,-100.00,NE,45,0.0,3.0,45,0.00,,,0.00,meteohub,2013-08-17 00:31:00,
2013-08-16 19:32:00,86.5,62.6,-100.00,NE,45,0.0,3.0,45,0.00,,,0.00,meteohub,2013-08-17 00:32:00,
2013-08-16 19:35:00,86.4,62.4,-100.00,ESE,113,0.0,2.0,45,0.00,,,0.00,meteohub,2013-08-17 00:35:00,
2013-08-16 19:37:00,86.2,62.4,-100.00,NNE,23,0.0,2.0,45,0.00,,,0.00,meteohub,2013-08-17 00:37:00,
2013-08-16 19:41:00,86.2,62.4,-100.00,NW,315,0.0,3.0,45,0.00,,,0.00,meteohub,2013-08-17 00:41:00,
2013-08-16 19:43:00,86.2,62.4,-100.00,NW,315,0.0,3.0,45,0.00,,,0.00,meteohub,2013-08-17 00:43:00,
2013-08-16 19:45:00,86.0,62.2,-100.00,NNE,23,0.0,3.0,45,0.00,,,0.00,meteohub,2013-08-17 00:45:00,
2013-08-16 19:47:00,85.8,62.6,-100.00,NE,45,0.0,3.0,46,0.00,,,0.00,meteohub,2013-08-17 00:47:00,
2013-08-16 19:49:00,85.8,62.6,-100.00,NNE,23,0.0,3.0,46,0.00,,,0.00,meteohub,2013-08-17 00:49:00,
2013-08-16 19:51:00,85.6,62.4,-100.00,NNE,23,0.0,1.0,46,0.00,,,0.00,meteohub,2013-08-17 00:51:00,
2013-08-16 19:53:00,85.6,62.4,-100.00,NNE,23,0.0,1.0,46,0.00,,,0.00,meteohub,2013-08-17 00:53:00,
2013-08-16 19:55:00,85.6,62.4,-100.00,NNE,23,0.0,1.0,46,0.00,,,0.00,meteohub,2013-08-17 00:55:00,
2013-08-16 19:57:00,85.5,63.0,-100.00,North,0,0.0,1.0,47,0.00,,,0.00,meteohub,2013-08-17 00:57:00,
2013-08-16 20:01:00,85.3,62.8,-100.00,NE,45,0.0,0.0,47,0.00,,,0.00,meteohub,2013-08-17 01:01:00,
2013-08-16 20:03:00,85.1,62.6,-100.00,NE,45,0.0,0.0,47,0.00,,,0.00,meteohub,2013-08-17 01:03:00,
2013-08-16 20:05:00,84.9,62.4,-100.00,SSE,158,0.0,0.0,47,0.00,,,0.00,meteohub,2013-08-17 01:05:00,
2013-08-16 20:07:00,84.9,62.4,-100.00,NE,45,2.0,0.0,47,0.00,,,0.00,meteohub,2013-08-17 01:07:00,
2013-08-16 20:11:00,84.7,62.2,-100.00,NNE,23,4.0,4.0,47,0.00,,,0.00,meteohub,2013-08-17 01:11:00,
2013-08-16 20:13:00,84.7,62.2,-100.00,NNE,23,4.0,4.0,47,0.00,,,0.00,meteohub,2013-08-17 01:13:00,
2013-08-16 20:15:00,84.6,62.1,-100.00,NNE,23,0.0,4.0,47,0.00,,,0.00,meteohub,2013-08-17 01:15:00,
2013-08-16 20:17:00,84.6,62.1,-100.00,NNE,23,0.0,4.0,47,0.00,,,0.00,meteohub,2013-08-17 01:17:00,
2013-08-16 20:19:00,84.4,61.9,-100.00,North,0,0.0,4.0,47,0.00,,,0.00,meteohub,2013-08-17 01:19:00,
2013-08-16 20:21:00,84.4,61.9,-100.00,North,0,0.0,4.0,47,0.00,,,0.00,meteohub,2013-08-17 01:21:00,
2013-08-16 20:25:00,84.0,61.7,-100.00,NNE,23,0.0,4.0,47,0.00,,,0.00,meteohub,2013-08-17 01:25:00,
2013-08-16 20:29:00,84.0,61.7,-100.00,NE,45,0.0,4.0,47,0.00,,,0.00,meteohub,2013-08-17 01:29:00,
2013-08-16 20:31:00,83.8,61.5,-100.00,ESE,113,0.0,1.0,47,0.00,,,0.00,meteohub,2013-08-17 01:31:00,
2013-08-16 20:33:00,83.5,61.2,-100.00,NNE,23,0.0,1.0,47,0.00,,,0.00,meteohub,2013-08-17 01:33:00,
2013-08-16 20:35:00,83.5,61.7,-100.00,NNE,23,0.0,1.0,48,0.00,,,0.00,meteohub,2013-08-17 01:35:00,
2013-08-16 20:37:00,83.3,61.5,-100.00,North,0,3.0,3.0,48,0.00,,,0.00,meteohub,2013-08-17 01:37:00,
2013-08-16 20:41:00,82.9,61.2,-100.00,NNE,23,0.0,3.0,48,0.00,,,0.00,meteohub,2013-08-17 01:41:00,
2013-08-16 20:45:00,82.8,61.0,-100.00,NNE,23,0.0,3.0,48,0.00,,,0.00,meteohub,2013-08-17 01:45:00,
2013-08-16 20:47:00,82.8,61.0,-100.00,NNE,23,0.0,3.0,48,0.00,,,0.00,meteohub,2013-08-17 01:47:00,
2013-08-16 20:49:00,82.6,61.0,-100.00,North,0,0.0,3.0,48,0.00,,,0.00,meteohub,2013-08-17 01:49:00,
2013-08-16 20:53:00,82.4,60.8,-100.00,NE,45,0.0,3.0,48,0.00,,,0.00,meteohub,2013-08-17 01:53:00,
2013-08-16 20:55:00,82.2,60.6,-100.00,NNE,23,0.0,0.0,48,0.00,,,0.00,meteohub,2013-08-17 01:55:00,
2013-08-16 20:57:00,82.2,60.6,-100.00,NNE,23,0.0,0.0,48,0.00,,,0.00,meteohub,2013-08-17 01:57:00,
2013-08-16 21:01:00,82.0,60.4,-100.00,NNE,23,0.0,0.0,48,0.00,,,0.00,meteohub,2013-08-17 02:01:00,
2013-08-16 21:02:00,82.0,60.4,-100.00,NNE,23,0.0,0.0,48,0.00,,,0.00,meteohub,2013-08-17 02:02:00,
2013-08-16 21:03:00,81.7,60.6,-100.00,NNE,23,0.0,0.0,49,0.00,,,0.00,meteohub,2013-08-17 02:03:00,
2013-08-16 21:05:00,81.7,60.6,-100.00,NNE,23,0.0,0.0,49,0.00,,,0.00,meteohub,2013-08-17 02:05:00,
2013-08-16 21:10:00,81.3,60.3,-100.00,NNE,23,0.0,0.0,49,0.00,,,0.00,meteohub,2013-08-17 02:10:00,
2013-08-16 21:14:00,81.1,60.1,-100.00,NNE,23,0.0,0.0,49,0.00,,,0.00,meteohub,2013-08-17 02:14:00,
2013-08-16 21:16:00,81.1,60.1,-100.00,NNE,23,2.0,0.0,49,0.00,,,0.00,meteohub,2013-08-17 02:16:00,
2013-08-16 21:17:00,81.1,60.1,-100.00,NNE,23,2.0,0.0,49,0.00,,,0.00,meteohub,2013-08-17 02:17:00,
2013-08-16 21:18:00,81.1,60.8,-100.00,NNE,23,0.0,0.0,50,0.00,,,0.00,meteohub,2013-08-17 02:18:00,
2013-08-16 21:20:00,80.8,60.4,-100.00,NNE,23,0.0,0.0,50,0.00,,,0.00,meteohub,2013-08-17 02:20:00,
2013-08-16 21:24:00,80.4,60.1,-100.00,North,0,0.0,2.0,50,0.00,,,0.00,meteohub,2013-08-17 02:24:00,
2013-08-16 21:26:00,80.4,60.1,-100.00,North,0,0.0,2.0,50,0.00,,,0.00,meteohub,2013-08-17 02:26:00,
2013-08-16 21:28:00,80.4,60.1,-100.00,North,0,3.0,3.0,50,0.00,,,0.00,meteohub,2013-08-17 02:28:00,
2013-08-16 21:30:00,80.4,60.1,-100.00,North,0,3.0,3.0,50,0.00,,,0.00,meteohub,2013-08-17 02:30:00,
2013-08-16 21:32:00,80.4,60.1,-100.00,NNE,23,0.0,2.0,50,0.00,,,0.00,meteohub,2013-08-17 02:32:00,
2013-08-16 21:34:00,80.4,60.6,-100.00,NNE,23,0.0,2.0,51,0.00,,,0.00,meteohub,2013-08-17 02:34:00,
2013-08-16 21:38:00,80.2,60.4,-100.00,NNE,23,0.0,3.0,51,0.00,,,0.00,meteohub,2013-08-17 02:38:00,
2013-08-16 21:42:00,79.9,60.1,-100.00,NNE,23,0.0,3.0,51,0.00,,,0.00,meteohub,2013-08-17 02:42:00,
2013-08-16 21:44:00,79.9,60.6,-100.00,NNE,23,0.0,3.0,52,0.00,,,0.00,meteohub,2013-08-17 02:44:00,
2013-08-16 21:46:00,79.9,60.6,-100.00,NNE,23,0.0,1.0,52,0.00,,,0.00,meteohub,2013-08-17 02:46:00,
2013-08-16 21:47:00,79.9,60.6,-100.00,NNE,23,0.0,1.0,52,0.00,,,0.00,meteohub,2013-08-17 02:47:00,
2013-08-16 21:52:00,79.7,60.4,-100.00,NNE,23,1.0,2.0,52,0.00,,,0.00,meteohub,2013-08-17 02:52:00,
2013-08-16 21:54:00,79.5,60.8,-100.00,NNE,23,0.0,2.0,53,0.00,,,0.00,meteohub,2013-08-17 02:54:00,
2013-08-16 21:58:00,79.5,60.8,-100.00,NE,45,1.0,2.0,53,0.00,,,0.00,meteohub,2013-08-17 02:58:00,
2013-08-16 22:00:00,79.3,61.2,-100.00,NNE,23,0.0,2.0,54,0.00,,,0.00,meteohub,2013-08-17 03:00:00,
2013-08-16 22:02:00,79.3,61.2,-100.00,NE,45,0.0,2.0,54,0.00,,,0.00,meteohub,2013-08-17 03:02:00,
2013-08-16 22:04:00,79.3,61.2,-100.00,NNE,23,0.0,2.0,54,0.00,,,0.00,meteohub,2013-08-17 03:04:00,
2013-08-16 22:08:00,79.2,61.2,-100.00,NNE,23,1.0,1.0,54,0.00,,,0.00,meteohub,2013-08-17 03:08:00,
2013-08-16 22:10:00,79.2,61.2,-100.00,NNE,23,1.0,1.0,54,0.00,,,0.00,meteohub,2013-08-17 03:10:00,
2013-08-16 22:16:00,78.8,61.3,-100.00,NNE,23,1.0,2.0,55,0.00,,,0.00,meteohub,2013-08-17 03:16:00,
2013-08-16 22:17:00,78.8,61.3,-100.00,NNE,23,1.0,2.0,55,0.00,,,0.00,meteohub,2013-08-17 03:17:00,
2013-08-16 22:20:00,78.6,61.2,-100.00,NNE,23,0.0,2.0,55,0.00,,,0.00,meteohub,2013-08-17 03:20:00,
2013-08-16 22:22:00,78.6,61.2,-100.00,NNE,23,0.0,2.0,55,0.00,,,0.00,meteohub,2013-08-17 03:22:00,
2013-08-16 22:24:00,78.6,61.5,-100.00,NNE,23,0.0,2.0,56,0.00,,,0.00,meteohub,2013-08-17 03:24:00,
2013-08-16 22:28:00,78.4,61.5,-100.00,NE,45,0.0,2.0,56,0.00,,,0.00,meteohub,2013-08-17 03:28:00,
2013-08-16 22:30:00,78.4,61.5,-100.00,NNE,23,0.0,1.0,56,0.00,,,0.00,meteohub,2013-08-17 03:30:00,
2013-08-16 22:32:00,78.4,61.5,-100.00,NNE,23,0.0,1.0,56,0.00,,,0.00,meteohub,2013-08-17 03:32:00,
2013-08-16 22:34:00,78.4,61.5,-100.00,NNE,23,1.0,1.0,56,0.00,,,0.00,meteohub,2013-08-17 03:34:00,
2013-08-16 22:38:00,78.1,61.5,-100.00,NNE,23,0.0,0.0,57,0.00,,,0.00,meteohub,2013-08-17 03:38:00,
2013-08-16 22:44:00,78.1,61.5,-100.00,NNE,23,0.0,1.0,57,0.00,,,0.00,meteohub,2013-08-17 03:44:00,
2013-08-16 22:46:00,77.9,61.5,-100.00,NNE,23,1.0,2.0,57,0.00,,,0.00,meteohub,2013-08-17 03:46:00,
2013-08-16 22:47:00,77.9,61.5,-100.00,NNE,23,1.0,2.0,57,0.00,,,0.00,meteohub,2013-08-17 03:47:00,
2013-08-16 22:48:00,77.9,61.5,-100.00,NNE,23,0.0,2.0,57,0.00,,,0.00,meteohub,2013-08-17 03:48:00,
2013-08-16 22:54:00,77.7,61.7,-100.00,NNE,23,0.0,2.0,58,0.00,,,0.00,meteohub,2013-08-17 03:54:00,
2013-08-16 22:56:00,77.5,61.5,-100.00,NNE,23,0.0,2.0,58,0.00,,,0.00,meteohub,2013-08-17 03:56:00,
2013-08-16 22:58:00,77.5,61.5,-100.00,NNE,23,1.0,2.0,58,0.00,,,0.00,meteohub,2013-08-17 03:58:00,
2013-08-16 23:02:00,77.5,61.5,-100.00,NNE,23,0.0,1.0,58,0.00,,,0.00,meteohub,2013-08-17 04:02:00,
2013-08-16 23:04:00,77.4,61.9,-100.00,North,0,0.0,1.0,59,0.00,,,0.00,meteohub,2013-08-17 04:04:00,
2013-08-16 23:06:00,77.2,61.7,-100.00,NNE,23,0.0,1.0,59,0.00,,,0.00,meteohub,2013-08-17 04:06:00,
2013-08-16 23:08:00,77.2,61.7,-100.00,NNE,23,0.0,1.0,59,0.00,,,0.00,meteohub,2013-08-17 04:08:00,
2013-08-16 23:10:00,77.2,61.7,-100.00,NNE,23,0.0,1.0,59,0.00,,,0.00,meteohub,2013-08-17 04:10:00,
2013-08-16 23:12:00,77.2,61.7,-100.00,North,0,0.0,1.0,59,0.00,,,0.00,meteohub,2013-08-17 04:12:00,
2013-08-16 23:14:00,76.8,61.3,-100.00,NNE,23,0.0,1.0,59,0.00,,,0.00,meteohub,2013-08-17 04:14:00,
2013-08-16 23:16:00,76.8,61.3,-100.00,NNE,23,0.0,0.0,59,0.00,,,0.00,meteohub,2013-08-17 04:16:00,
2013-08-16 23:18:00,76.8,61.9,-100.00,NNE,23,0.0,0.0,60,0.00,,,0.00,meteohub,2013-08-17 04:18:00,
2013-08-16 23:20:00,76.8,61.9,-100.00,NNE,23,0.0,0.0,60,0.00,,,0.00,meteohub,2013-08-17 04:20:00,
2013-08-16 23:24:00,76.8,61.9,-100.00,NNE,23,0.0,0.0,60,0.00,,,0.00,meteohub,2013-08-17 04:24:00,
2013-08-16 23:28:00,76.6,61.7,-100.00,NNE,23,0.0,0.0,60,0.00,,,0.00,meteohub,2013-08-17 04:28:00,
2013-08-16 23:32:00,76.5,61.5,-100.00,NNE,23,0.0,0.0,60,0.00,,,0.00,meteohub,2013-08-17 04:32:00,
2013-08-16 23:35:00,76.1,61.7,-100.00,NNE,23,0.0,0.0,61,0.00,,,0.00,meteohub,2013-08-17 04:35:00,
2013-08-16 23:37:00,76.1,61.7,-100.00,NNE,23,0.0,0.0,61,0.00,,,0.00,meteohub,2013-08-17 04:37:00,
2013-08-16 23:41:00,75.9,61.5,-100.00,NNE,23,0.0,0.0,61,0.00,,,0.00,meteohub,2013-08-17 04:41:00,
2013-08-16 23:45:00,75.7,61.9,-100.00,NNE,23,0.0,0.0,62,0.00,,,0.00,meteohub,2013-08-17 04:45:00,
2013-08-16 23:47:00,75.7,61.9,-100.00,NNE,23,0.0,0.0,62,0.00,,,0.00,meteohub,2013-08-17 04:47:00,
2013-08-16 23:51:00,75.6,61.7,-100.00,NNE,23,0.0,0.0,62,0.00,,,0.00,meteohub,2013-08-17 04:51:00,
2013-08-16 23:53:00,75.4,61.9,-100.00,NNE,23,0.0,0.0,63,0.00,,,0.00,meteohub,2013-08-17 04:53:00,
2013-08-16 23:55:00,75.4,61.9,-100.00,NNE,23,0.0,0.0,63,0.00,,,0.00,meteohub,2013-08-17 04:55:00,
2013-08-16 23:57:00,75.0,61.5,-100.00,NW,315,0.0,0.0,63,0.00,,,0.00,meteohub,2013-08-17 04:57:00,
2013-08-16 23:59:00,75.0,61.5,-100.00,North,0,0.0,0.0,63,0.00,,,0.00,meteohub,2013-08-17 04:59:00,